Content
SEND FEEDBACK

Daily
Averages
Monthly
Summary
United States of America

ANN ARBOR, MICHIGAN


Home > North America > United States > Michigan
Elevation: 759 feet     Latitude: 42 17N     Longitude: 083 43W

WEATHER
 
SELECT A DAY
Number of Records: 203,415;   Date Range: 1/1/95 - 7/29/14
 
SHARE

PRINT THIS DATA

[ ← Previous Day ]
WEATHER ALMANAC - NOVEMBER 22, 2013
[ Next Day → ]
[ °C ]   °F
Weather ElementAverageHighLow
Temperature41.2 °F46.4 °F (6:09 am)26.1 °F (11:53 pm)
Dewpoint37.6 °F44.6 °F (1:45 am)21.9 °F (10:53 pm)
Humidity87.5 %100 % (12:53 am)67 % (5:53 pm)
Barometer30.21 in30.38 in (11:53 pm)30.13 in (2:38 am)
Wind Speed7.2 mph19.6 mph (1:36 pm)
Wind Gust27.6 mph (1:36 pm)
Weather ElementAverage
Visibility5.9 mi
Wind DirectionWSW (240 °)

Weather ElementTotal
Precipitation0.16 in
Heating Degree Days28.8 (Base 65)
Averaged from 50 records on November 22, 2013
WEATHER CONDITIONS BREAKOUT
WIND DIRECTION BREAKOUT
WEATHER BY HOUR - NOVEMBER 22, 2013
[ °C ]   °F
Local TimeTemperatureDewpointHumidityBarometerVisibilityWind DirectionWind SpeedGust SpeedPrecipitationEventsConditions
12:35 AM44.6 °F42.8 °F93 %30.16 in1.5 miCalm0.04 inRainLight Rain
12:49 AM44.6 °F42.8 °F93 %30.15 in1.2 miCalm0.05 inRainLight Rain
12:53 AM44.1 °F44.1 °F100 %30.17 in1.2 miCalm0.05 inRainLight Rain
1:02 AM44.6 °F42.8 °F93 %30.15 in2.0 miSW (220°)3.5 mph0.00 inOvercast
1:08 AM44.6 °F42.8 °F93 %30.15 in3.0 miSW (220°)3.5 mph0.00 inOvercast
1:26 AM44.6 °F42.8 °F93 %30.15 in2.5 miCalm0.00 inOvercast
1:45 AM44.6 °F44.6 °F100 %30.15 in2.0 miCalm0.01 inOvercast
1:53 AM44.1 °F43.0 °F96 %30.16 in2.5 miCalm0.01 inOvercast
2:38 AM44.6 °F42.8 °F93 %30.13 in2.0 miCalm0.00 inOvercast
2:53 AM44.1 °F43.0 °F96 %30.15 in2.5 miCalm0.00 inOvercast
3:53 AM44.1 °F43.0 °F96 %30.14 in3.0 miCalmOvercast
4:03 AM44.6 °F42.8 °F93 %30.13 in3.0 miCalmOvercast
4:10 AM44.6 °F42.8 °F93 %30.13 in2.5 miWSW (250°)4.6 mphOvercast
4:50 AM44.6 °F44.6 °F100 %30.13 in3.0 miCalmOvercast
4:53 AM45.0 °F44.1 °F97 %30.14 in4.0 miWNW (290°)3.5 mphOvercast
5:53 AM46.0 °F44.1 °F93 %30.15 in7.0 miWNW (300°)6.9 mphOvercast
6:09 AM46.4 °F44.6 °F93 %30.15 in8.0 miWest (280°)6.9 mphOvercast
6:53 AM45.0 °F44.1 °F97 %30.14 in6.0 miNW (320°)3.5 mphOvercast
7:18 AM44.6 °F44.6 °F100 %30.14 in7.0 miWNW (290°)4.6 mphOvercast
7:29 AM44.6 °F44.6 °F100 %30.13 in6.0 miWNW (290°)3.5 mphOvercast
7:53 AM45.0 °F44.1 °F97 %30.16 in4.0 miWest (270°)4.6 mphOvercast
8:11 AM44.6 °F44.6 °F100 %30.14 in2.5 miWNW (290°)4.6 mphOvercast
8:37 AM46.4 °F44.6 °F93 %30.14 in3.0 miWNW (290°)6.9 mph0.00 inOvercast
8:53 AM46.0 °F44.1 °F93 %30.16 in3.0 miWNW (290°)8.1 mph0.00 inRainLight Rain
9:11 AM46.4 °F44.6 °F93 %30.14 in4.0 miWNW (300°)4.6 mph0.00 inOvercast
9:53 AM46.0 °F43.0 °F89 %30.17 in4.0 miWNW (300°)12.7 mph19.6 mph0.00 inOvercast
10:16 AM46.4 °F42.8 °F87 %30.17 in4.0 miWNW (290°)6.9 mphOvercast
10:53 AM45.0 °F42.1 °F90 %30.19 in3.0 miNW (310°)6.9 mphOvercast
11:53 AM44.1 °F41.0 °F89 %30.20 in4.0 miNW (310°)12.7 mphOvercast
12:02 PM42.8 °F39.2 °F87 %30.18 in4.0 miNNW (330°)12.7 mph0.00 inRainLight Rain
12:15 PM42.8 °F41.0 °F93 %30.18 in2.5 miNorth (350°)10.4 mph0.00 inOvercast
12:32 PM41.0 °F37.4 °F87 %30.19 in5.0 miNNW (340°)16.1 mph26.5 mph0.00 inRainLight Rain
12:49 PM39.2 °F35.6 °F87 %30.20 in10.0 miNNW (340°)16.1 mph24.2 mph0.00 inOvercast
12:53 PM39.0 °F36.0 °F89 %30.22 in10.0 miNNW (330°)15.0 mph24.2 mph0.00 inOvercast
1:36 PM37.4 °F33.8 °F87 %30.21 in10.0 miNNW (330°)19.6 mph27.6 mphOvercast
1:53 PM37.9 °F34.0 °F86 %30.24 in10.0 miNNW (330°)15.0 mph20.7 mphOvercast
2:32 PM37.4 °F30.2 °F75 %30.23 in10.0 miNNW (340°)17.3 mph25.3 mphOvercast
2:53 PM37.0 °F30.9 °F79 %30.25 in10.0 miNNW (330°)11.5 mph20.7 mphOvercast
3:53 PM37.0 °F28.9 °F73 %30.27 in10.0 miNNW (340°)15.0 mph24.2 mphOvercast
4:53 PM36.0 °F27.0 °F70 %30.32 in10.0 miNNW (340°)16.1 mph23.0 mphMostly Cloudy
5:03 PM35.6 °F26.6 °F70 %30.30 in10.0 miNNW (340°)11.5 mph25.3 mphMostly Cloudy
5:53 PM36.0 °F26.1 °F67 %30.34 in10.0 miNNW (340°)13.8 mph19.6 mphOvercast
6:30 PM35.6 °F26.6 °F70 %30.33 in10.0 miNNW (330°)8.1 mph19.6 mphOvercast
6:38 PM35.6 °F26.6 °F70 %30.33 in10.0 miNW (320°)6.9 mphOvercast
6:53 PM35.1 °F25.0 °F67 %30.36 in10.0 miNNW (330°)9.2 mphScattered Clouds
7:53 PM34.0 °F24.1 °F67 %30.37 in10.0 miNNW (330°)13.8 mph19.6 mphScattered Clouds
8:53 PM32.0 °F23.0 °F69 %30.37 in10.0 miNNW (330°)6.9 mphClear
9:53 PM30.0 °F23.0 °F75 %30.36 in10.0 miNW (310°)4.6 mphClear
10:53 PM27.0 °F21.9 °F81 %30.37 in10.0 miWest (280°)4.6 mphClear
11:53 PM26.1 °F21.9 °F84 %30.38 in10.0 miWest (280°)5.8 mphClear
Hourly data recorded from KARB, located miles away from Ann Arbor, Michigan







STORIES FROM OUR PARTNERS